Find Shiyan 24C-02

NORAD ID: 58651 Int'l Des: 2023-206 Owner: CASC Country: CN operational
LEOCIRCULARRETROGRADESSO

当前视图

正在加载3D地球...

关于 Shiyan 24C-02

正在加载描述...

即将过境

Passes for default location (London). Set your location on the main map for personalized predictions.

高度历史

Loading altitude history...

两行轨道根数

1 58651U 23206B 26140.76607299 .00000936 00000-0 83719-4 0 9997
2 58651 97.4047 109.9760 0001984 178.8372 181.2857 14.98077721131203
Epoch: May 20, 2026 • Age: 227 hours

当前状态

高度 596.1 km
速度 7.56 km/s
星下点 -56.91°S, 156.21°E
发射日期 Dec 25, 2023
运行时间 2.4 years
类型 other

技术详情

分类 Payload
质量 80.00 kg
干质量 80.00 kg
总质量 80.00 kg
长度 1.50 m
直径 1.50 m
跨度 8.00 m
形状 Box+panels
制造商 SECM
阶段状态 In Orbit
所有者/国家 CASC/CN

Most Searched